Regional Weather Roundup
Issued by NWS

Home | Current Version | Previous Version | Text Only | Print | Product List | Glossary On
Versions: 1 2 3 4 5 6 7 8 9 10 11 12 13 14 15 16 17 18 19 20 21 22 23 24 25 26 27 28 29 30 31 32 33 34 35 36 37 38 39 40 41 42 43 44 45 46 47 48 49 50
000
ASUS45 KCYS 290010
RWRWY

WYOMING REGIONAL WEATHER ROUNDUP
NATIONAL WEATHER SERVICE CHEYENNE WY
500 PM MST SUN DEC 28 2014

NOTE:  "FAIR" INDICATES FEW OR NO CLOUDS BELOW 12,000 FEET
WITH NO SIGNIFICANT WEATHER AND/OR OBSTRUCTIONS TO VISIBILITY.

WYZ001-290100-
YELLOWSTONE NATIONAL PARK

CITY           SKY/WX    TMP DP  RH WIND       PRES   REMARKS
LK YELLOWSTONE   N/A     12   8  84 CALM      29.87R
6HR MIN TEMP:  12; 6HR MAX TEMP:  18; 6HR PCP:  0.04;

W YELLOWSTONE  NOT AVBL

$$
WYZ002>013-054>058-071-098>099-290100-
NORTHERN WYOMING

CITY           SKY/WX    TMP DP  RH WIND       PRES   REMARKS
JACKSON        PTCLDY    18  14  86 CALM      29.90R
CODY           CLOUDY    19  16  86 CALM      29.93R
GREYBULL       MOCLDY    13  11  92 NW3       29.98R
6HR MIN TEMP:  10; 6HR MAX TEMP:  14; 6HR PCP: TRACE;

WORLAND        CLOUDY    11   5  77 SW6       29.96R WCI   1
6HR MIN TEMP:   4; 6HR MAX TEMP:  14;

SHERIDAN       LGT SNOW  25  21  85 N12       29.97R FOG     WCI  14
6HR MIN TEMP:  19; 6HR MAX TEMP:  25; 6HR PCP: TRACE;

BUFFALO        LGT SNOW  20  18  92 N8        29.92R FOG     WCI  10
6HR MIN TEMP:  20; 6HR MAX TEMP:  28; 6HR PCP: TRACE;

GILLETTE       CLOUDY    23  15  71 NE3       29.92R
6HR MIN TEMP:  22; 6HR MAX TEMP:  26;

HULETT           N/A    N/A N/A N/A MISG        N/A
NEWCASTLE      MOCLDY    23  18  80 W5        29.93R WCI  17

$$
WYZ014>020-022>026-101>103-290100-
CENTRAL WYOMING

CITY           SKY/WX    TMP DP  RH WIND       PRES   REMARKS
BIG PINEY      FAIR       1  -4  79 NW9       29.89R WCI -14
6HR MIN TEMP:   1; 6HR MAX TEMP:  17; 6HR PCP: TRACE;

PINEDALE       FAIR       5   3  92 NW5       29.88R WCI  -4
DUBOIS         NOT AVBL
LANDER         FAIR      14   7  73 NW8       29.89R WCI   3
6HR MIN TEMP:  12; 6HR MAX TEMP:  22;

RIVERTON       CLOUDY    14   8  77 NW6       29.90R WCI   5
6HR MIN TEMP:  11; 6HR MAX TEMP:  21; 6HR PCP: TRACE;

CASPER         CLOUDY    20  13  74 N9        29.87R WCI   9
6HR MIN TEMP:  20; 6HR MAX TEMP:  26;

DOUGLAS        CLOUDY    24  16  71 N6        29.88R WCI  17
6HR MIN TEMP:  24; 6HR MAX TEMP:  31;


$$
WYZ021-027>030-104>119-290100-
SOUTHERN WYOMING

CITY           SKY/WX    TMP DP  RH WIND       PRES   REMARKS
EVANSTON       FAIR      17  14  88 SW15      29.92R WCI   2
6HR MIN TEMP:  17; 6HR MAX TEMP:  23; 6HR PCP: TRACE;

FORT BRIDGER   CLOUDY    22  17  82 W16       29.95R WCI   8
ROCK SPRINGS   FAIR      17  10  74 W17       29.89R WCI   1
6HR MIN TEMP:  17; 6HR MAX TEMP:  24; 6HR PCP: TRACE;

DIXON          CLOUDY    22  17  81 SW16      29.93R WCI   8
RAWLINS        CLOUDY    20  15  81 W18       29.84S WCI   5
6HR MIN TEMP:  20; 6HR MAX TEMP:  21; 6HR PCP: TRACE;

SARATOGA       CLOUDY    19  14  79 SW14      29.85R WCI   6
LARAMIE        MOCLDY    17   9  70 SW7       29.82R WCI   8
6HR MIN TEMP:  17; 6HR MAX TEMP:  22;

CHEYENNE       FAIR      24   8  50 W7        29.84R WCI  16
6HR MIN TEMP:  23; 6HR MAX TEMP:  33;

TORRINGTON     FAIR      27  16  63 NW9       29.87S WCI  18
6HR MIN TEMP:  27; 6HR MAX TEMP:  33; 6HR PCP:  0.06;

PINE BLUFFS    MOCLDY    23  16  74 CALM      29.87S

$$



USA.gov is the U.S. government's official web portal to all federal, state and local government web resources and services.